Location: Prescott
(34.5400°N, 112.4680°W)
Time: 20:23:25
(UTC-07:00)

Hubble Space Telescope - Pass Details

Date: 02 March 2019
Orbit: 537 x 540 km, 28.5° (Epoch: 19 March)

Event Time Altitude Azimuth Distance (km) Brightness Sun altitude
Rises 06:17:31 0° 211° (SSW) 2,661 4.0 -9.1°
Reaches altitude 10° 06:21:09 10° 178° (S) 1,774 3.5 -8.4°
Maximum altitude 06:22:37 12° 157° (SSE) 1,670 3.6 -8.1°
Drops below altitude 10° 06:24:05 10° 136° (SE) 1,776 4.2 -7.8°
Sets 06:27:43 0° 103° (ESE) 2,669 6.6 -7.0°
